Tracking 19490 objects as of 24-Jan-2019
HD Live streaming from Space Station
objects crossing your sky now

FENGYUN 1C DEB

Track FENGYUN 1C DEB now!
10-day predictions


NORAD ID: 31751
Int'l Code: 1999-025CFA
Perigee: 727.6 km
Apogee: 813.1 km
Inclination: 98.9 °
Period: 100.1 minutes
Semi major axis: 7141 km
RCS: 0.0135 m2 (small)
Launch date: May 10, 1999
Source: People's Republic of China (PRC)
Launch site: Taiyaun Space Center, China (TSC)

Note: This is SATELLITE DEBRIS
aabbcc
Your satellite tracking list
Your tracking list is empty




NASA's NSSDC Master Catalog

Two Line Element Set (TLE):
1 31751U 99025CFA 19023.06243425 +.00001363 +00000-0 +45127-3 0  9998
2 31751 098.8662 129.8436 0059848 344.4927 015.4424 14.38585349609362
Source of the keplerian elements: AFSPC